EW4521 Weather Reports


time (UTC)temp
C
wind
direction
speed
KPH
gust
KPH
rain 1hr
cm
rain 24hr
cm
rain mn
cm
humidity
%
barometer
mb
20260507100040 11 287 0.0 1.6 0.00 0.00 0.00 90 1015.8
20260507094540 11 287 0.0 1.6 0.00 0.00 0.00 90 1015.9
20260507093041 11 287 0.0 1.6 0.00 0.00 0.00 90 1016.0
20260507091537 12 287 0.0 0.0 0.00 0.00 0.00 90 1016.1
20260507090029 12 287 0.0 0.0 0.00 0.00 0.00 90 1016.2
20260507084526 12 287 0.0 0.0 0.00 0.00 0.00 90 1016.5
20260507083028 12 287 0.0 0.0 0.00 0.00 0.00 89 1016.7
20260507081533 12 287 0.0 0.0 0.00 0.00 0.00 89 1016.7
20260507080023 12 287 0.0 0.0 0.00 0.00 0.00 89 1016.8
20260507074521 12 287 0.0 1.6 0.00 0.00 0.00 89 1016.8
20260507073020 12 287 0.0 1.6 0.00 0.00 0.00 89 1016.8
20260507071518 12 287 0.0 4.8 0.00 0.00 0.00 89 1016.7
20260507070014 13 286 1.6 4.8 0.00 0.00 0.00 89 1016.9
20260507064515 13 284 0.0 3.2 0.00 0.00 0.00 88 1017.1
20260507063013 13 290 1.6 6.4 0.00 0.00 0.00 87 1017.1
20260507061513 13 284 0.0 4.8 0.00 0.00 0.00 86 1017.1
20260507060013 13 283 0.0 1.6 0.00 0.00 0.00 86 1017.1
20260507054512 13 284 0.0 4.8 0.00 0.00 0.00 85 1017.1
20260507053011 13 284 0.0 4.8 0.00 0.00 0.00 84 1017.1
20260507051511 13 285 0.0 0.0 0.00 0.00 0.00 84 1017.1
20260507050011 13 285 0.0 1.6 0.00 0.00 0.00 84 1017.0
20260507044512 13 285 0.0 0.0 0.00 0.00 0.00 83 1017.0
20260507043009 14 285 0.0 1.6 0.00 0.00 0.00 83 1016.9
20260507041523 14 285 0.0 4.8 0.00 0.00 0.00 82 1016.9
20260507040008 14 282 0.0 4.8 0.00 0.00 0.00 81 1016.8
20260507034511 15 292 1.6 6.4 0.00 0.00 0.00 80 1016.6
20260507033009 15 280 1.6 8.0 0.00 0.00 0.00 78 1016.5
20260507031505 15 301 3.2 8.0 0.00 0.00 0.00 76 1016.3
20260507030004 15 288 1.6 9.7 0.00 0.00 0.00 74 1016.2
20260507024505 16 272 3.2 9.7 0.00 0.00 0.00 72 1016.1
20260507023004 16 301 1.6 11.3 0.00 0.00 0.00 71 1016.0
20260507021503 16 276 4.8 12.9 0.00 0.00 0.00 69 1016.0
20260507020004 17 302 3.2 8.0 0.00 0.00 0.00 68 1015.9
20260507014506 17 288 1.6 12.9 0.00 0.00 0.00 66 1015.8
20260507013004 18 258 6.4 14.5 0.00 0.00 0.00 62 1015.7
20260507011501 18 203 3.2 14.5 0.00 0.00 0.00 61 1015.7
20260507010100 19 259 6.4 17.7 0.00 0.00 0.00 61 1015.7
20260507004700 20 229 1.6 19.3 0.00 0.00 0.00 58 1015.6
20260507003101 20 324 4.8 16.1 0.00 0.00 0.00 58 1015.6
20260507000100 20 273 8.0 19.3 0.00 0.00 0.00 59 1015.4
20260506234556 20 282 6.4 20.9 0.00 0.00 0.00 59 1015.3
20260506233102 20 194 8.0 22.5 0.00 0.00 0.00 59 1015.3
20260506231555 21 224 4.8 17.7 0.00 0.00 0.00 58 1015.3
20260506230054 21 299 8.0 19.3 0.00 0.00 0.00 55 1015.3
20260506224554 21 278 6.4 14.5 0.00 0.00 0.00 55 1015.4
20260506223105 22 227 8.0 17.7 0.00 0.00 0.00 54 1015.6
20260506221552 21 326 6.4 16.1 0.00 0.00 0.00 55 1015.6
20260506220051 21 309 11.3 19.3 0.00 0.00 0.00 57 1015.7
20260506214551 21 274 4.8 24.1 0.00 0.00 0.00 57 1015.9
20260506213048 21 199 11.3 20.9 0.00 0.00 0.00 59 1015.8
20260506211547 21 199 4.8 29.0 0.00 0.00 0.00 57 1016.0
20260506210046 21 205 4.8 19.3 0.00 0.00 0.00 58 1016.2
20260506204545 21 200 6.4 24.1 0.00 0.00 0.00 58 1016.2
20260506203046 21 155 6.4 22.5 0.00 0.00 0.00 57 1016.2
20260506201543 22 193 9.7 19.3 0.00 0.00 0.00 54 1016.3
20260506194539 22 318 4.8 17.7 0.00 0.00 0.00 53 1016.7
20260506193037 22 262 3.2 12.9 0.00 0.00 0.00 51 1016.7
20260506191534 22 272 8.0 16.1 0.00 0.00 0.00 50 1017.0
20260506190030 21 284 1.6 14.5 0.00 0.00 0.00 53 1017.1
20260506184528 21 263 3.2 12.9 0.00 0.00 0.00 53 1017.2
20260506183025 21 277 4.8 12.9 0.00 0.00 0.00 52 1017.4
20260506181529 21 254 3.2 14.5 0.00 0.00 0.00 54 1017.5
20260506180025 20 39 1.6 14.5 0.00 0.00 0.00 57 1017.7
20260506174514 19 271 4.8 14.5 0.00 0.05 0.00 60 1017.8
20260506173012 19 218 3.2 12.9 0.00 0.05 0.00 61 1017.9
20260506171507 18 154 3.2 12.9 0.00 0.05 0.00 61 1018.1
20260506170003 18 276 6.4 17.7 0.00 0.05 0.00 64 1018.1
20260506164559 17 293 4.8 11.3 0.00 0.05 0.00 65 1018.0
20260506163100 16 38 1.6 6.4 0.00 0.05 0.00 69 1018.1
20260506161556 16 50 1.6 9.7 0.00 0.05 0.00 70 1018.1
20260506160050 15 66 1.6 9.7 0.00 0.05 0.00 72 1018.1
20260506154542 15 93 1.6 11.3 0.00 0.05 0.00 74 1018.1
20260506153042 13 78 3.2 9.7 0.00 0.05 0.00 78 1018.1
20260506151535 12 58 3.2 6.4 0.00 0.05 0.00 84 1018.2
20260506150033 11 53 3.2 8.0 0.00 0.05 0.00 88 1018.1
20260506144526 10 58 1.6 8.0 0.00 0.23 0.00 90 1018.1
20260506143021 10 23 0.0 4.8 0.00 0.23 0.00 90 1018.1
20260506141518 9 22 0.0 3.2 0.00 0.23 0.00 90 1018.1
20260506140020 9 22 1.6 6.4 0.00 0.23 0.00 90 1018.0
20260506134526 8 353 0.0 0.0 0.00 0.23 0.00 89 1017.8
20260506133012 8 351 0.0 0.0 0.00 0.23 0.00 89 1017.7
20260506131510 8 351 0.0 3.2 0.00 0.23 0.00 88 1017.6
20260506130008 8 326 0.0 0.0 0.00 0.23 0.00 88 1017.5
20260506124511 9 327 0.0 3.2 0.00 0.23 0.00 88 1017.4
20260506123005 9 328 0.0 3.2 0.00 0.23 0.00 88 1017.3
20260506121507 9 327 0.0 3.2 0.00 0.23 0.00 87 1017.1
20260506120008 9 327 0.0 4.8 0.00 0.23 0.00 87 1017.2
20260506114558 10 306 0.0 3.2 0.00 0.23 0.00 87 1017.1
20260506113057 10 306 0.0 0.0 0.00 0.23 0.00 87 1017.2
20260506111611 10 306 0.0 0.0 0.00 0.23 0.00 87 1017.1
20260506110055 10 305 0.0 1.6 0.00 0.23 0.00 87 1017.1
20260506104553 10 294 0.0 1.6 0.00 0.23 0.00 87 1017.1
20260506103052 10 294 0.0 1.6 0.00 0.23 0.00 87 1017.0
20260506101551 10 294 0.0 3.2 0.00 0.23 0.00 87 1016.9